Voltar ao catálogo

CZ-6A R/B

AtivoPO
NORAD 57831·ROCKET BODY·🇨🇳 China

Lançado Sep 10, 2023 de Taiyuan Satellite Launch Center

Loading…

Próximas Passagens (próximas 24 horas)

TLE

AtualizadoSource: Space-Track

Época: Sep 14, 2026, 06:44 UTC

1 57831U 23139B   26257.28105697  .00000293  00000-0  11084-3 0  9993
2 57831  85.9920 207.6399 0011900 340.0036  20.0688 14.27783912156901

Acompanhe CZ-6A R/B em tempo real com AllMySat

Download on the App Store